[[{"header":{"parameterUnit":"m.s-1","parameterCategory":1,"la1":30.2991,"la2":30.254,"lo1":-89.0895,"lo2":-89.0444,"dy":0.0017,"dx":0.0017,"nx":28,"ny":28,"refTime":"2025-04-30T21:00:00:Z","depth":0,"parameterNumber":2,"parameterNumberName":"U-component_of_WINDS"},"data":[0,0,0,0,0,0,0,0,0,0,0,0,0,0,0,0,0,0,0,0,0,0,0,0,0,0,0,0,0,0,0,0,0,0,0,0,0,0,0,0,0,0,0,0,0,0,0,0,0,0,0,0,0,0,0,0,0,0,-2.0374,-2.0374,0,-2.0426,-2.0427,-2.0427,-2.0457,-2.0457,-2.0457,-2.0457,-2.0509,-2.051,-2.0511,0,0,0,0,0,0,0,0,0,0,0,0,0,-2.0298,-2.03,-2.0374,-2.0374,-2.0375,-2.0426,-2.0427,-2.0427,-2.0457,-2.0457,-2.0457,-2.0458,-2.0509,-2.051,-2.0512,0,0,0,0,0,0,0,0,0,0,0,0,0,-2.0339,-2.03,-2.0374,-2.0396,-2.0399,-2.0426,-2.0427,-2.0427,-2.0457,-2.0457,-2.0457,-2.0458,-2.0508,-2.051,-2.0512,-2.052,0,0,-2.0518,-2.0518,0,0,0,0,0,0,0,0,-2.0337,-2.0342,-2.0392,-2.0395,-2.0397,-2.0435,-2.0419,-2.0458,-2.0457,-2.0435,-2.0457,-2.0458,-2.0484,-2.0488,-2.0497,-2.0522,-2.0525,-2.0518,-2.0519,-2.052,-2.052,0,0,0,0,0,0,0,-2.0334,-2.0339,-2.0394,-2.0393,-2.0396,-2.0403,-2.0409,-2.0427,-2.0458,-2.0437,-2.0439,-2.0445,-2.0486,-2.0495,-2.0499,-2.0525,-2.0518,-2.0519,-2.0521,-2.0521,-2.056,-2.056,0,0,0,0,0,0,-2.0327,-2.0337,-2.0393,-2.0396,-2.0367,-2.0404,-2.0411,-2.0423,-2.0458,-2.0463,-2.0445,-2.0446,-2.0492,-2.0497,-2.0501,-2.0513,-2.052,-2.0521,-2.0523,-2.0561,-2.056,-2.056,0,0,0,0,0,0,-2.0326,-2.0332,-2.0391,-2.0367,-2.0375,-2.0405,-2.0419,-2.0424,-2.0434,-2.0464,-2.0469,-2.0449,-2.0492,-2.0498,-2.0515,-2.0515,-2.0522,-2.0524,-2.0561,-2.0561,-2.056,-2.0538,0,0,0,0,0,0,-2.0323,-2.0331,-2.0335,-2.0367,-2.0376,-2.0404,-2.0419,-2.0425,-2.0437,-2.044,-2.0469,-2.0474,-2.0493,-2.0512,-2.0517,-2.0518,-2.0525,-2.0561,-2.0561,-2.056,-2.0539,-2.0537,-2.0535,0,0,0,0,0,-2.0321,-2.0326,-2.0335,-2.0342,-2.0382,-2.0404,-2.041,-2.0432,-2.0437,-2.0441,-2.046,-2.0474,-2.0515,-2.0514,-2.052,-2.0521,-2.0561,-2.0561,-2.056,-2.0539,-2.0537,-2.0535,0,0,0,0,0,0,-2.0292,-2.0331,-2.0341,-2.0357,-2.0377,-2.0409,-2.0415,-2.0428,-2.0447,-2.0448,-2.0474,-2.0481,-2.0495,-2.051,-2.0508,-2.0531,-2.0539,-2.054,-2.0521,-2.0519,-2.0518,-2.0514,-2.0527,0,0,0,0,0,-2.0288,-2.0304,-2.0336,-2.0347,-2.0357,-2.0384,-2.0395,-2.041,-2.0432,-2.0441,-2.0461,-2.0481,-2.0499,-2.051,-2.0528,-2.0541,-2.0548,-2.0545,-2.0543,-2.0542,-2.0542,-2.0551,-2.055,-2.056,-2.056,-2.056,0,0,-2.0279,-2.0302,-2.031,-2.0342,-2.036,-2.0375,-2.0391,-2.0407,-2.0419,-2.0443,-2.0461,-2.0476,-2.0501,-2.0516,-2.0524,-2.0529,-2.0541,-2.0541,-2.054,-2.0541,-2.055,-2.0549,-2.0549,-2.056,-2.056,-2.056,0,0,-2.0271,-2.029,-2.0302,-2.0319,-2.0346,-2.0364,-2.0367,-2.0397,-2.0409,-2.0427,-2.0446,-2.046,-2.049,-2.0507,-2.0519,-2.0518,-2.0531,-2.0523,-2.0514,-2.0523,-2.0522,-2.0521,-2.0521,-2.0521,-2.0523,-2.0523,-2.0523,0,-2.0257,-2.0282,-2.0306,-2.0321,-2.0334,-2.0358,-2.0369,-2.0385,-2.0416,-2.0424,-2.0429,-2.0468,-2.0486,-2.0506,-2.0506,-2.0515,-2.0519,-2.052,-2.052,-2.052,-2.052,-2.052,-2.052,-2.0522,-2.0522,-2.0523,-2.0523,0,-2.0263,-2.028,-2.0285,-2.0316,-2.033,-2.0343,-2.0369,-2.038,-2.0394,-2.0412,-2.043,-2.0453,-2.0476,-2.0482,-2.0495,-2.0504,-2.0506,-2.0515,-2.0524,-2.0517,-2.0518,-2.0518,-2.0521,-2.0521,-2.0521,-2.0522,0,0,-2.0238,-2.0282,-2.0284,-2.0298,-2.0329,-2.0343,-2.0357,-2.038,-2.039,-2.041,-2.0423,-2.0448,-2.0457,-2.0471,-2.0487,-2.0494,-2.0492,-2.0502,-2.0503,-2.05,-2.0504,-2.0497,-2.0496,-2.0501,-2.0501,-2.0501,-2.0502,0,-2.0235,-2.0262,-2.0284,-2.0303,-2.0319,-2.0342,-2.0355,-2.0375,-2.0392,-2.0408,-2.0426,-2.0444,-2.0454,-2.0463,-2.0471,-2.0491,-2.0493,-2.0491,-2.0513,-2.0514,-2.0506,-2.0497,-2.0489,-2.0489,-2.0502,-2.0502,-2.0502,0,-2.0234,-2.0255,-2.0276,-2.0306,-2.0314,-2.0325,-2.0348,-2.0363,-2.0387,-2.0399,-2.0415,-2.0432,-2.0448,-2.0455,-2.0477,-2.0475,-2.0486,-2.0497,-2.0497,-2.05,-2.0507,-2.05,-2.0489,-2.0489,-2.0503,-2.0503,-2.0503,0,-2.0215,-2.0248,-2.0265,-2.0276,-2.0312,-2.0319,-2.0334,-2.0358,-2.0371,-2.0392,-2.04,-2.0422,-2.0434,-2.045,-2.0472,-2.0475,-2.0493,-2.0501,-2.0503,-2.0502,-2.0505,-2.0505,-2.0496,-2.0512,-2.0512,-2.0512,-2.0512,0,-2.0209,-2.0221,-2.0256,-2.0267,-2.0281,-2.0306,-2.0319,-2.0336,-2.0358,-2.0372,-2.0393,-2.0405,-2.0433,-2.0449,-2.0467,-2.0483,-2.0488,-2.0498,-2.0502,-2.0496,-2.0495,-2.0503,-2.0504,-2.0512,-2.0512,-2.0512,-2.0512,0,-2.0189,-2.0213,-2.0233,-2.0266,-2.0275,-2.0284,-2.0312,-2.0322,-2.0341,-2.0358,-2.0364,-2.0392,-2.0412,-2.0436,-2.0463,-2.0475,-2.049,-2.0496,-2.0482,-2.0485,-2.0485,-2.0485,-2.0481,-2.0482,-2.0497,-2.0497,-2.0496,0,-2.0184,-2.0194,-2.0228,-2.0239,-2.0254,-2.0271,-2.0285,-2.031,-2.0323,-2.0352,-2.0359,-2.0381,-2.04,-2.0431,-2.0454,-2.0475,-2.0482,-2.048,-2.0486,-2.0479,-2.0483,-2.0482,-2.0483,-2.0478,-2.0478,-2.0478,-2.0477,0,-2.0172,-2.0184,-2.0203,-2.0226,-2.0242,-2.0261,-2.0281,-2.0289,-2.0319,-2.0332,-2.0353,-2.0368,-2.0397,-2.0418,-2.0442,-2.0458,-2.0472,-2.0475,-2.0477,-2.0471,-2.0462,-2.0467,-2.0478,-2.0475,-2.0475,-2.0476,-2.0476,-2.0476,-2.016,-2.017,-2.0195,-2.0216,-2.0234,-2.0253,-2.0265,-2.0285,-2.0303,-2.0329,-2.0343,-2.0363,-2.0388,-2.0422,-2.0437,-2.0454,-2.0459,-2.0461,-2.0461,-2.0461,-2.046,-2.046,-2.0458,-2.0458,-2.0458,-2.0458,-2.0458,0,-2.0149,-2.0167,-2.0186,-2.0214,-2.023,-2.0243,-2.0266,-2.0279,-2.0297,-2.0319,-2.0337,-2.0361,-2.0383,-2.0407,-2.043,-2.0439,-2.0446,-2.0444,-2.0443,-2.0447,-2.0454,-2.045,-2.0438,-2.0438,-2.0438,-2.0438,-2.0438,-2.0438,-2.0146,-2.0164,-2.0178,-2.0205,-2.0223,-2.0244,-2.0256,-2.0274,-2.0291,-2.0318,-2.0336,-2.0352,-2.0375,-2.04,-2.042,-2.0427,-2.0434,-2.043,-2.0439,-2.0445,-2.0446,-2.0448,-2.0445,-2.0431,-2.0431,-2.043,-2.043,-2.043]},{"header":{"parameterUnit":"m.s-1","parameterCategory":1,"la1":30.2991,"la2":30.254,"lo1":-89.0895,"lo2":-89.0444,"dy":0.0017,"dx":0.0017,"nx":28,"ny":28,"refTime":"2025-04-30T21:00:00:Z","depth":0,"parameterNumber":3,"parameterNumberName":"V-component_of_WINDS"},"data":[0,0,0,0,0,0,0,0,0,0,0,0,0,0,0,0,0,0,0,0,0,0,0,0,0,0,0,0,0,0,0,0,0,0,0,0,0,0,0,0,0,0,0,0,0,0,0,0,0,0,0,0,0,0,0,0,0,0,5.3533,5.3532,0,5.3446,5.3445,5.3444,5.3319,5.3317,5.3314,5.3312,5.3222,5.3222,5.3222,0,0,0,0,0,0,0,0,0,0,0,0,0,5.359,5.359,5.3533,5.3532,5.3531,5.3446,5.3445,5.3443,5.3319,5.3316,5.3314,5.3311,5.3223,5.3222,5.3222,0,0,0,0,0,0,0,0,0,0,0,0,0,5.3541,5.359,5.3533,5.3458,5.3451,5.3446,5.3444,5.3443,5.332,5.3316,5.3313,5.331,5.3223,5.3222,5.3222,5.3283,0,0,5.322,5.322,0,0,0,0,0,0,0,0,5.3544,5.3539,5.347,5.3463,5.3455,5.339,5.3432,5.3389,5.332,5.3369,5.3312,5.3309,5.3281,5.3275,5.3266,5.3278,5.3275,5.322,5.3219,5.3219,5.3219,0,0,0,0,0,0,0,5.3547,5.3542,5.3498,5.347,5.346,5.3429,5.3418,5.3423,5.3344,5.3365,5.3356,5.3347,5.3276,5.3267,5.3263,5.3273,5.322,5.3219,5.3219,5.3219,5.3328,5.3331,0,0,0,0,0,0,5.3562,5.3545,5.3501,5.3496,5.3492,5.343,5.3419,5.3414,5.3344,5.333,5.335,5.3342,5.3269,5.3264,5.3259,5.3323,5.3219,5.3219,5.3218,5.3325,5.3329,5.3333,0,0,0,0,0,0,5.3564,5.3559,5.3504,5.3518,5.3509,5.3433,5.3429,5.3414,5.3404,5.3332,5.3318,5.3355,5.3267,5.326,5.3277,5.3319,5.3218,5.3218,5.3321,5.3326,5.3331,5.3454,0,0,0,0,0,0,5.3566,5.356,5.3583,5.3519,5.3508,5.3525,5.3431,5.3415,5.3404,5.3392,5.3333,5.3321,5.3263,5.3279,5.3277,5.3316,5.3217,5.3317,5.3324,5.3329,5.3446,5.3463,5.3477,0,0,0,0,0,5.3568,5.3622,5.3585,5.358,5.3535,5.3527,5.3521,5.3454,5.3408,5.3429,5.3383,5.3322,5.3315,5.3281,5.3278,5.3318,5.3314,5.3322,5.3329,5.3439,5.3459,5.3477,0,0,0,0,0,0,5.3692,5.3612,5.357,5.3605,5.3574,5.3506,5.3532,5.3479,5.346,5.345,5.3368,5.3355,5.3382,5.3352,5.3316,5.3372,5.3305,5.3312,5.339,5.3409,5.3424,5.343,5.3217,0,0,0,0,0,5.3724,5.3725,5.3654,5.3692,5.3678,5.3608,5.3602,5.3554,5.3518,5.3504,5.3459,5.3426,5.3416,5.3411,5.3398,5.3442,5.3426,5.3468,5.3483,5.3496,5.3502,5.352,5.3537,5.3357,5.3357,5.3356,0,0,5.3789,5.3745,5.375,5.3715,5.3685,5.3687,5.3598,5.3604,5.3604,5.3505,5.3517,5.3484,5.3442,5.3472,5.3483,5.3447,5.3549,5.3505,5.3516,5.3515,5.353,5.3547,5.3562,5.3362,5.3361,5.336,0,0,5.3907,5.3875,5.3901,5.3873,5.3829,5.3782,5.3789,5.3729,5.3703,5.3714,5.3639,5.3638,5.3624,5.3596,5.358,5.3688,5.363,5.3686,5.3766,5.3784,5.3798,5.3811,5.3846,5.386,5.3693,5.3693,5.3694,0,5.3993,5.3992,5.3922,5.3932,5.3918,5.3829,5.3854,5.383,5.3785,5.3777,5.3738,5.3716,5.3682,5.3703,5.3729,5.372,5.3723,5.3691,5.3802,5.3814,5.3824,5.3857,5.3871,5.37,5.3699,5.3699,5.3698,0,5.4099,5.41,5.4126,5.4084,5.4073,5.4091,5.4022,5.402,5.3973,5.393,5.3942,5.3898,5.3873,5.3875,5.3829,5.3889,5.3868,5.3818,5.3748,5.3849,5.3879,5.3891,5.371,5.3707,5.3705,5.3704,0,0,5.4291,5.4209,5.422,5.4199,5.4144,5.4143,5.4157,5.4132,5.4131,5.4103,5.411,5.41,5.4052,5.4034,5.3984,5.4001,5.4086,5.3948,5.3945,5.3972,5.4146,5.4182,5.4198,5.4048,5.4051,5.4052,5.4148,0,5.4396,5.4414,5.4351,5.4385,5.4384,5.43,5.4311,5.4278,5.4239,5.4231,5.4187,5.4179,5.4119,5.4107,5.412,5.4073,5.4119,5.4065,5.4052,5.4053,5.4063,5.4214,5.4253,5.4345,5.4159,5.4161,5.4163,0,5.4521,5.4499,5.4533,5.4475,5.4472,5.4483,5.4455,5.445,5.4411,5.438,5.4361,5.4303,5.431,5.4247,5.4254,5.4219,5.4211,5.4187,5.4189,5.4183,5.4112,5.4209,5.4373,5.4387,5.4181,5.4179,5.4178,0,5.4654,5.4634,5.465,5.4635,5.4569,5.4578,5.4551,5.4508,5.4498,5.4473,5.4465,5.4442,5.4429,5.4412,5.4349,5.4309,5.4364,5.4295,5.4337,5.4338,5.435,5.435,5.4512,5.435,5.4349,5.4349,5.4349,0,5.4777,5.48,5.4709,5.472,5.4743,5.467,5.4695,5.4659,5.4622,5.4623,5.4549,5.4551,5.4469,5.4462,5.4413,5.4425,5.4421,5.4395,5.4381,5.44,5.4403,5.4391,5.4382,5.4353,5.4352,5.4351,5.4351,0,5.4929,5.4869,5.4881,5.4818,5.4802,5.4822,5.4766,5.4772,5.4728,5.473,5.4726,5.4657,5.4644,5.458,5.4553,5.452,5.4548,5.4523,5.4562,5.4552,5.4596,5.4592,5.4755,5.4771,5.4601,5.4603,5.4604,0,5.501,5.5025,5.4963,5.4959,5.4935,5.4929,5.4917,5.4846,5.4837,5.4792,5.4804,5.4785,5.4766,5.475,5.4696,5.4674,5.4646,5.4704,5.4642,5.4659,5.4643,5.4642,5.4642,5.4717,5.4719,5.4721,5.4722,0,5.5158,5.5128,5.5114,5.5091,5.5079,5.5057,5.503,5.503,5.4951,5.4944,5.4931,5.4916,5.4888,5.487,5.4838,5.4808,5.4752,5.4743,5.4751,5.4769,5.479,5.4776,5.4595,5.4739,5.4737,5.4736,5.4735,5.4735,5.5275,5.5284,5.5242,5.5229,5.5201,5.5178,5.518,5.5136,5.5124,5.5095,5.5054,5.5046,5.5004,5.4956,5.4931,5.4922,5.489,5.4902,5.4904,5.4908,5.4916,5.4794,5.4916,5.4916,5.4915,5.4915,5.4914,0,5.5417,5.5386,5.5375,5.534,5.5329,5.5278,5.5246,5.524,5.5233,5.52,5.5183,5.5166,5.5148,5.5093,5.5068,5.5072,5.5045,5.5067,5.5065,5.5058,5.4948,5.4942,5.5089,5.5089,5.5089,5.5089,5.5089,5.5089,5.549,5.5503,5.5468,5.5466,5.5433,5.5425,5.541,5.5387,5.536,5.5345,5.533,5.5294,5.5251,5.5223,5.5203,5.5187,5.518,5.5211,5.5186,5.5084,5.5067,5.5051,5.5045,5.5211,5.5211,5.5297,5.5298,5.5298]}]]